872  
ASUS41 KLWX 091412  
RWRLWX  
 
REGIONAL WEATHER ROUNDUP  
NATIONAL WEATHER SERVICE BALTIMORE MD/WASHINGTON DC  
1000 AM EDT SUN AUG 09 2020  
 
NOTE: "FAIR" INDICATES FEW OR NO CLOUDS BELOW 12,000 FEET  
WITH NO SIGNIFICANT WEATHER AND/OR S TO VISIBILITY
.  
TC=TEMPERATURE CELSIUS  
 
* =NON NWS SITE. STATION DOES NOT REPORT PRECIPITATION (E.G. RAIN,  
SNOW, ETC.), THUNDER, OR FOG.
 
 
DCZ001-MDZ009-015-VAZ040>042-051-053>054-091500-  
WASHINGTON METRO  
 
CITY SKY/WX TMP DP RH WIND PRES REMARKS
 
WASHINGTON NAT MOSUNNY 81 73 76 SE6 30.15F  
DULLES MOSUNNY 82 74 76 CALM 30.15F  
ANDREWS AFB SUNNY 82 72 72 S6 30.15F  
FT BELVOIR SUNNY 83 72 69 S5 30.15S  
QUANTICO MOSUNNY 80 72 76 S5 30.15F  
COLLEGE PARK* MOSUNNY 81 69 66 CALM 30.14F  
LEESBURG* SUNNY 73 70 88 CALM 30.17F  
MANASSAS* MOSUNNY 81 74 79 S6 30.15F  
GAITHERSBURG* MOSUNNY 82 74 76 VRB3 30.17F  
 

 
 
MDZ006>007-011-014-091500-  
BALTIMORE METRO  
 
CITY SKY/WX TMP DP RH WIND PRES REMARKS
 
BWI AIRPORT MOSUNNY 82 72 71 W8 30.14F  
ANNAPOLIS SUNNY 82 74 76 W3 30.14F  
ABERDEEN* PTSUNNY 80 74 81 W6 30.14S  
FORT MEADE* MOSUNNY 79 73 83 SW5 30.17F  
 

 
 
MDZ012-015-019>023-091500-  
MARYLAND EASTERN SHORE  
 
CITY SKY/WX TMP DP RH WIND PRES REMARKS
 
OCEAN CITY MOSUNNY 80 73 79 S6 30.16F  
SALISBURY MOSUNNY 81 72 74 CALM 30.15F  
BAY BRIDGE AP* SUNNY 81 75 83 W3 30.15S  
CAMBRIDGE* MOSUNNY 81 73 78 CALM 30.15S  
EASTON* PTSUNNY 82 75 78 CALM 30.18F  
 

 
 
MDZ017>025-091500-  
SOUTHERN MARYLAND  
 
CITY SKY/WX TMP DP RH WIND PRES REMARKS
 
PATUXENT RIVER MOSUNNY 83 76 79 CALM 30.14F HX 91  
ST INIGOES MOSUNNY 83 79 88 SW6 30.14F HX 94  
LEONARDTOWN* SUNNY 81 70 69 CALM 30.17S  
 

 
 
MDZ003>005-091500-  
NORTH CENTRAL MARYLAND  
 
CITY SKY/WX TMP DP RH WIND PRES REMARKS
 
FREDERICK* SUNNY 81 72 74 CALM 30.15S  
HAGERSTOWN APT NOT AVBL  
WESTMINSTER* SUNNY 81 72 74 W6 30.17S  
 

 
 
MDZ501>502-091500-  
WESTERN MARYLAND  
 
CITY SKY/WX TMP DP RH WIND PRES REMARKS
 
OAKLAND* SUNNY 70 57 64 CALM 30.28R  
CUMBERLAND* MOSUNNY 70 67 89 CALM 30.24S  
 

 
 
VAZ025>031-091500-  
SHENANDOAH VALLEY  
 
CITY SKY/WX TMP DP RH WIND PRES REMARKS
 
WINCHESTER* SUNNY 77 70 78 CALM 30.16F  
FRONT ROYAL* SUNNY 81 73 78 S3 30.16F  
LURAY* PTSUNNY 73 72 94 S3 30.18F  
NEW MARKET* NOT AVBL  
STAUNTON* PTSUNNY 76 70 82 CALM 30.23S  
WAYNESBORO* PTSUNNY 75 71 87 CALM 30.22S  
 

 
 
WVZ021-048>050-054>055-091500-  
EASTERN WEST VIRGINIA PANHANDLE  
 
CITY SKY/WX TMP DP RH WIND PRES REMARKS
 
MARTINSBURG SUNNY 78 70 76 CALM 30.16S  
PETERSBURG* NOT AVBL  
 

 
 
VAZ036>039-050-091500-  
CENTRAL FOOTHILLS  
 
CITY SKY/WX TMP DP RH WIND PRES REMARKS
 
CHARLOTTESVILL SUNNY 80 73 79 S3 30.17S  
CULPEPER* MOSUNNY 79 73 83 CALM 30.17S  
ORANGE* SUNNY 81 72 74 CALM 30.16F  
GORDONSVILLE* SUNNY 80 75 83 S5 30.15F  
WARRENTON* MOSUNNY 82 74 77 S3 30.15F  
 

 
 
VAZ055>057-091500-  
NORTH AND CENTRAL PIEDMONT  
 
CITY SKY/WX TMP DP RH WIND PRES REMARKS
 
FREDERICKSBRG* SUNNY 81 73 78 CALM 30.14F  
STAFFORD* MOSUNNY 81 77 89 CALM 30.19F  
 

 
 
NCZ024-NYZ072-PAZ021-071-VAZ022-071-091500-  
OTHER REGIONAL OBSERVATIONS  
 
CITY SKY/WX TMP DP RH WIND PRES REMARKS
 
NEW YORK CITY N/A 78 69 73 SW6 30.16F  
PHILADELPHIA MOSUNNY 80 71 74 VRB5 30.14F  
PITTSBURGH MOSUNNY 74 61 63 CALM 30.19S  
ROANOKE MOSUNNY 77 71 82 W5 30.22F  
RICHMOND MOSUNNY 79 72 79 S6 30.16F  
RALEIGH MOSUNNY 83 74 74 VRB3 30.16F  
 

 
 
ANZ530>537-091500-  
MARINE OBSERVATIONS  
 
STATION/POSITION TIME TEMP WIND PRES
 
AIR SEA DIR/SP/G  
(UTC) (F) (DEG/KT/KT) (MB)  
THOMAS PT LIGHT 1400 78 82 170/ 3/ 4 1021.7F  
TOLCHESTER 1324 78 83 280/ 3/ 4 1021.0  
GOOSES REEF 1348 79 83 N/A  
COVE POINT 1324 150/ 4/ 5 1021.5  
BALT HARBOR 1324 78 82 210/ 3/ 4 1020.4  
BALT KEY BRIDGE 1324 78 300/ 4/ 4 1020.9  
WASH DC CHANNEL 1324 79 82 150/ 4/ 5 1021.1  
DAHLGREN 1324 80 84 130/ 1/ 2 1020.4  
LEWISETTA 1324 78 81 180/ 4/ 5 1021.1  
SOLOMONS ISLAND 1324 83 83 CALM / 1 1020.8  
PINEY POINT 1324 220/ 2/ 3 N/A  
CAMBRIDGE PIER 1324 82 83 CALM / 2 1021.0  
BISHOPS HEAD 1324 80 82 140/ 3/ 4 1021.0  
 

 
 
 
 
CLICK HERE TO GO TO PREVIOUS BULLETINS.

The Nexlab VA Page
The Nexlab MD Page
The Nexlab WV Page Main Text Page